Regional Weather Roundup
Issued by NWS Wakefield, VA

Home | Current Version | Previous Version | Graphics & Text | Print | Product List | Glossary On
Versions: 1 2 3 4 5 6 7 8 9 10 11 12 13 14 15 16 17 18 19 20 21 22 23 24 25 26 27 28 29 30 31 32 33 34 35 36 37 38 39 40 41 42 43 44 45 46 47 48 49 50
000
ASUS41 KAKQ 031314
RWRAKQ

REGIONAL WEATHER ROUNDUP
NATIONAL WEATHER SERVICE WAKEFIELD VA
900 AM EDT SUN MAY 03 2015

Note: "fair" indicates few or no clouds below 12,000 feet with no
significant weather and/or obstructions to visibility. * = Denotes
station may not report precipitation (e.g., rain,snow,etc.),
thunder or fog.

VAZ042-051-052>054-056-031400-
NORTHERN VIRGINIA

CITY           SKY/WX    TMP DP  RH WIND       PRES   REMARKS
WASH NATIONAL  MOSUNNY   65  48  54 CALM      30.13R
DULLES         MOSUNNY   64  45  49 N3        30.13R
FORT BELVOIR   SUNNY     65  50  57 CALM      30.12R
QUANTICO       MOSUNNY   64  46  52 NW8       30.13R
FREDERICKSBRG* SUNNY     62  51  67 CALM      30.13R
STAFFORD*      SUNNY     65  44  45 NW5       30.17R
WARRENTON      SUNNY     64  51  62 CALM      30.14R
CULPEPER*      NOT AVBL
MANASSAS*      SUNNY     59  52  77 CALM      30.14R
LEESBURG*      SUNNY     70  46  43 NW6       30.14R
WINCHESTER     SUNNY     63  37  39 SW7       30.15R
FRONT ROYAL*   PTSUNNY   61  45  55 S6        30.15R
LURAY*         PTSUNNY   57  48  72 SW3       30.17S
$$

VAZ048-049-060>072-079>083-031400-
CENTRAL AND SOUTH CENTRAL VIRGINIA

CITY           SKY/WX    TMP DP  RH WIND       PRES   REMARKS
RICHMOND       MOSUNNY   67  46  47 W6        30.14R
CHESTERFIELD*  FAIR      66  43  42 NW7       30.16R
PETERSBURG*    SUNNY     68  47  46 W6        30.15R
HANOVER        SUNNY     65  48  54 W5        30.16R
TAPPAHANNOCK*  MOSUNNY   62  44  50 W5        30.14R
QUINTON*       FAIR      63  48  59 NW5       30.13S
CHARLOTTSVILLE MOSUNNY   64  48  56 CALM      30.15R
GORDONSVILLE*  FAIR      62  49  62 SW5       30.14S
ORANGE*        MOSUNNY   66  46  48 CALM      30.15S
LOUISA*        SUNNY     64  48  55 CALM      30.14R
BUMPASS*       PTSUNNY   63  48  59 CALM      30.15R
FARMVILLE*     MOSUNNY   61  50  67 S3        30.15R
CREWE*         FAIR      67  47  49 W3        30.15S
FORT PICKETT*  FAIR      63  49  60 W6        30.15S
CHASE CITY*    FAIR      62  54  74 CALM      30.17S
CLARKSVILLE*   PTSUNNY   59  50  72 W3        30.17R
SOUTH HILL*    SUNNY     62  49  63 CALM      30.22R
LAWRENCEVILLE* FAIR      60  50  69 W6        30.16R
EMPORIA*       SUNNY     63  50  63 W5        30.17R
$$

VAZ088>098-031400-
SOUTHEAST VIRGINIA

CITY           SKY/WX    TMP DP  RH WIND       PRES   REMARKS
NORFOLK        SUNNY     65  50  58 SW5       30.13R
VIRGINIA BEACH MOSUNNY   65  52  62 W8        30.13R
NORFOLK NAVAL  MOSUNNY   68  50  52 W10       30.15R
WEST POINT*    SUNNY     65  49  56 W5        30.15R
SALUDA*        FAIR      61  51  69 W9        30.12R
NEWPORT NEWS   SUNNY     67  50  54 W8        30.13S
LANGLEY AFB    SUNNY     65  51  61 W7        30.12R
FORT EUSTIS    SUNNY     60  51  70 NW5       30.12R
WILLIAMSBURG*  SUNNY     63  55  77 NW6       30.14S
HR EXEC AP*    FAIR      63  54  72 W5        30.16R
FRANKLIN*      SUNNY     61  51  69 W3        30.16R
WAKEFIELD      SUNNY     63  51  65 W6        30.14S
$$

VAZ020-022-025-037-045-031400-
WEST CENTRAL AND SOUTHWEST VIRGINIA

CITY           SKY/WX    TMP DP  RH WIND       PRES   REMARKS
STAUNTON*      MOSUNNY   58  46  64 SW5       30.20R
WAYNESBORO*    FAIR      58  44  61 S3        30.19R
HOT SPRINGS VA PTSUNNY   56  33  42 W5        30.22S
LYNCHBURG      SUNNY     60  49  66 VRB3      30.19R
DANVILLE       SUNNY     58  49  72 SW3       30.19R
SOUTH BOSTON*  FAIR      58  50  77 SW3       30.18S
MARTINSVILLE   SUNNY     55  47  73 CALM      30.22S
ROANOKE        MOSUNNY   58  42  55 VRB3      30.22R
BLACKSBURG     SUNNY     49  42  77 CALM      30.25S
DUBLIN*        SUNNY     54  45  71 CALM      30.24S
MARION*        SUNNY     56  42  60 CALM      30.25R
HILLSVILLE*    SUNNY     51  39  63 S5        30.23R
RICHLANDS*     FAIR      58  10  15 CALM      30.21S
WISE*          SUNNY     63  32  31 S5        30.22S
ABINGDON*      SUNNY     57  43  58 E7        30.21R
$$

MDZ021>025-VAZ099-100-031400-
SOUTHERN MARYLAND AND THE DELMARVA PENINSULA

CITY           SKY/WX    TMP DP  RH WIND       PRES   REMARKS
PATUXENT RIVER MOSUNNY   66  46  48 NW8       30.11R
BAY BRIDGE APT   N/A    N/A N/A N/A N8        30.11R
LEONARDTOWN    MOSUNNY   64  43  45 W5        30.12S
DOVER          SUNNY     58  56  93 NW3       30.06R
GEORGETOWN     MOSUNNY   60  50  69 SW9       30.10R
EASTON         SUNNY     64  50  59 NW7       30.13
CAMBRIDGE      SUNNY     64  46  52 NW5       30.09R
SALISBURY      MOSUNNY   61  50  67 W5        30.09S
OCEAN CITY     PTSUNNY   62  50  64 NW5       30.10R
WALLOPS ISLAND MOSUNNY   65  53  65 W7        30.10S
ACCOMACK*      PTSUNNY   63  52  67 W6        30.11S
$$

NCZ012>017-030>032-031400-
NORTH CENTRAL AND EASTERN NORTH CAROLINA

CITY           SKY/WX    TMP DP  RH WIND       PRES   REMARKS
ROANOKE RAPIDS FAIR      59  54  82 SW5       30.17R
RALEIGH        MOSUNNY   61  52  72 W5        30.20R
ELIZABETH CITY SUNNY     63  53  70 W10       30.16R
AHOSKIE*       SUNNY     62  53  73 CALM      30.17R
EDENTON*       SUNNY     63  54  74 NW5       30.17R
CURRITUCK*     SUNNY     63  50  63 W9        30.15S
KILL DEVIL HLS SUNNY     60  55  81 W8        30.14S
MANTEO         SUNNY     61  53  75 W8        30.16S
CAPE HATTERAS  SUNNY     61  56  83 W7        30.17R
TARBORO*       FAIR      61  54  78 W3        30.19R
GOLDSBORO      SUNNY     62  55  78 W7        30.17R
WASHINGTON     SUNNY     63  53  70 W7        30.18R
GREENVILLE     SUNNY     63  54  72 W3        30.19R
NEW BERN       SUNNY     65  55  70 W6        30.19R
WILMINGTON     SUNNY     67  59  75 W5        30.19R
$$

VAZ048-031400-
ELSEWHERE

CITY           SKY/WX    TMP DP  RH WIND       PRES   REMARKS
HARRISBURG PA  MOSUNNY   62  44  51 NW5       30.11R
BALTIMORE      MOSUNNY   66  41  40 NE3       30.10R
ANNAPOLIS      SUNNY     63  43  48 NW3       30.10R
ANDREWS AFB    SUNNY     67  44  43 NW6       30.11R
PHILADELPHIA   PTSUNNY   58  45  62 CALM      30.11R
HENDERSON NC   SUNNY     63  48  59 W5        30.19R
GREENSBORO     MOSUNNY   65  45  48 W5        30.19R
ROCKY MOUNT    SUNNY     62  54  74 SW6       30.19R
$$

VAZ100-031400-
MARINE

STATION/POSITION TIME  TEMP    WIND        PRES    WAVE   SWELL
                       AIR SEA DIR/SP/G            HT/PER HT/PER
                 (UTC) (F)     (DEG/KT/KT) (MB)    (FT/S) (FT/S)
BRANDYWINE LGT   1206   53 54  200/  5/  5 1018.9
CAPE MAY NJ      1200   53 58  160/  5/  6 1018.5R
LEWES DE         1200   54 53  230/  2/  4 1018.5R
15NM E FENWICK I 1250   51 48              1018.8R   5/10
OCEAN-CITY-INLET 1206   54 53  200/  5/  6 1018.6R
WACHAPREAGUE VA  1200   61 58  270/  2/  5 1019.4R
THOMAS POINT MD  1300   60 58   30/  5/  5 1020.2R
GOOSES REEF MD   1300   60 57                N/A     0
COVE POINT MD    1200   62     320/  8/ 11 1019.6R
SOLOMONS ISLAND  1212      60                N/A
BISHOPS HEAD MD  1200   59 60  260/  7/  7 1018.7R
PINEY POINT MD   1200          320/  9/ 10   N/A
CAMBRIDGE MD     1200   61 60  260/  5/  9 1018.7R
LEWISETTA VA     1200   59 61              1019.3R
RAPPAHANNOCK LGT 1200          240/  7/  7 1020.0R
YORK RVR RNG VA  1200   59     270/  8/  9 1019.3R
YORKTOWN VA      1212   60 58  270/  6/  8 1019.7R
JAMESTOWN VA     1300   58 63  300/  6/  8 1019.7R
DOMINION TERM VA 1200   56     270/  5/  6 1020.2R
KIPTOPEKE VA     1200      61  260/  4/  4   N/A
CHES BAY BRIDGE  1206   58 58  230/  8/ 10 1019.6R
CAPE HENRY VA    1200   60     250/  7/ 12 1018.6R
CHESAPEAKE LGHT  1200   59     260/  9/ 10 1020.5R
WILLOUBY STN VA  1200   57     240/  8/  9 1020.6R
S CRANEY ISL VA  1212          240/  4/  5 1020.3R
CAPE HENRY BUOY  1228      55                N/A     4/11   2/11
1ST LANDING BUOY 1300      58                N/A     2/ 5
CAPE CHARLES BUO 1226      54                N/A     4/11   5/11
OFFSHORE WE BUOY 1211      50                N/A     5/ 9   5/ 9
64NM E OF VA BCH 1250   57 60  230/  8/ 12 1020.0R   7/10   7/10
DUCK PIER NC     1200   59 53  270/  9/ 11 1019.6R
44056 DUCK FRF   1211      54                N/A     5/10   3/11
OREGON INLET NC  1200   58 56  270/  7/ 10 1020.8R
HATTERAS NC      1206   62 60  280/  5/  6 1020.7R
DIAMOND SHLS NC  1250   58 58  310/  4/  6 1021.5R   5/11   5/11
CAPE LOOKOUT NC  1300   67     280/  6/  7 1021.6R
$$


USA.gov is the U.S. government's official web portal to all federal, state and local government web resources and services.